Find Starlink 11306

NORAD ID: 61254 Int'l Des: 2024-175 Owner: SPXS Country: US Constellation: starlink operational
LEOCIRCULAR

Live Position

Loading 3D Globe...

About Starlink 11306

Description loading...

Upcoming Passes

Passes for default location (London). Set your location on the main map for personalized predictions.

Altitude History

Loading altitude history...

Two-Line Element Set

1 61254U 24175M 26126.04959644 .00004515 00000-0 42133-4 0 9997
2 61254 53.1598 133.6362 0000985 62.2948 297.8170 15.69691754 93579
Epoch: May 6, 2026 • Age: 8 hours

Current Status

Altitude 363.4 km
Velocity 7.69 km/s
Sub-Earth Point -11.67°S, 48.35°W
Launch Date Sep 25, 2024
Age 1.6 years
Type internet

Technical Details

Classification Payload
Mass 960.00 kg
Dry Mass 910.00 kg
Total Mass 960.00 kg
Length 0.30 m
Diameter 4.10 m
Span 29.00 m
Shape Box + pan
Manufacturer SPXS
Bus Type Starlink V2MD
Phase Status In Orbit
Owner/State SPXS/US

Most Searched